EW8148 Weather Reports


time (UTC)temp
C
wind
direction
speed
KPH
gust
KPH
rain 1hr
cm
rain 24hr
cm
rain mn
cm
humidity
%
barometer
mb
20260508071433 10 242 0.0 1.6 0.00 0.00 0.00 81 1016.0
20260508070933 10 242 0.0 1.6 0.00 0.00 0.00 81 1015.9
20260508070435 10 242 0.0 3.2 0.00 0.00 0.00 81 1015.9
20260508065930 10 243 0.0 3.2 0.00 0.00 0.00 81 1016.0
20260508065429 10 234 0.0 1.6 0.00 0.00 0.00 81 1016.1
20260508064930 10 234 0.0 1.6 0.00 0.00 0.00 81 1016.2
20260508064428 10 234 0.0 0.0 0.00 0.00 0.00 81 1016.2
20260508064051 10 234 0.0 3.2 0.00 0.00 0.00 82 1016.1
20260508063934 10 234 0.0 3.2 0.00 0.00 0.00 81 1016.1
20260508063930 10 234 0.0 1.6 0.00 0.00 0.00 81 1016.1
20260508062424 10 234 0.0 1.6 0.00 0.00 0.00 82 1016.1
20260508061922 10 234 0.0 0.0 0.00 0.00 0.00 81 1016.1
20260508061422 10 234 0.0 1.6 0.00 0.00 0.00 81 1016.0
20260508060923 10 234 0.0 1.6 0.00 0.00 0.00 81 1016.1
20260508060421 10 236 0.0 1.6 0.00 0.00 0.00 81 1016.0
20260508055929 10 231 0.0 0.0 0.00 0.00 0.00 79 1016.0
20260508055922 10 230 0.0 1.6 0.00 0.00 0.00 81 1016.0
20260508055421 10 230 0.0 0.0 0.00 0.00 0.00 81 1016.0
20260508054921 10 231 0.0 0.0 0.00 0.00 0.00 81 1016.0
20260508053921 11 231 0.0 0.0 0.00 0.00 0.00 80 1016.1
20260508053418 11 231 0.0 1.6 0.00 0.00 0.00 79 1016.2
20260508052919 11 231 0.0 1.6 0.00 0.00 0.00 79 1016.2
20260508052418 11 231 0.0 0.0 0.00 0.00 0.00 79 1016.2
20260508051918 11 231 0.0 0.0 0.00 0.00 0.00 79 1016.2
20260508051418 11 231 0.0 1.6 0.00 0.00 0.00 78 1016.2
20260508050925 11 231 0.0 0.0 0.00 0.00 0.00 78 1016.2
20260508050919 11 231 0.0 1.6 0.00 0.00 0.00 78 1016.2
20260508045919 11 231 0.0 1.6 0.00 0.00 0.00 77 1016.3
20260508045417 11 231 1.6 3.2 0.00 0.00 0.00 76 1016.2
20260508044918 11 230 1.6 3.2 0.00 0.00 0.00 76 1016.1
20260508044420 11 56 0.0 1.6 0.00 0.00 0.00 76 1016.0
20260508044415 11 56 0.0 1.6 0.00 0.00 0.00 76 1016.1
20260508043415 11 56 0.0 0.0 0.00 0.00 0.00 76 1016.1
20260508042915 12 56 0.0 1.6 0.00 0.00 0.00 75 1016.1
20260508042416 12 56 0.0 1.6 0.00 0.00 0.00 75 1016.2
20260508041916 12 56 0.0 1.6 0.00 0.00 0.00 74 1016.2
20260508041416 12 56 0.0 1.6 0.00 0.00 0.00 73 1016.1
20260508040914 12 56 0.0 1.6 0.00 0.00 0.00 73 1016.0
20260508040412 12 56 0.0 1.6 0.00 0.00 0.00 72 1016.0
20260508035912 12 56 0.0 1.6 0.00 0.00 0.00 71 1016.0
20260508035413 12 56 0.0 1.6 0.00 0.00 0.00 71 1016.0
20260508034913 13 56 0.0 1.6 0.00 0.00 0.00 70 1016.0
20260508034412 13 56 0.0 1.6 0.00 0.00 0.00 70 1016.0
20260508033914 13 56 0.0 1.6 0.00 0.00 0.00 69 1015.9
20260508033414 13 56 0.0 1.6 0.00 0.00 0.00 68 1015.9
20260508032917 13 56 0.0 1.6 0.00 0.00 0.00 67 1015.9
20260508032911 13 56 0.0 1.6 0.00 0.00 0.00 67 1015.8
20260508031910 14 56 0.0 1.6 0.00 0.00 0.00 67 1015.8
20260508031411 14 56 0.0 1.6 0.00 0.00 0.00 66 1015.8
20260508030915 15 56 0.0 3.2 0.00 0.00 0.00 64 1015.8
20260508030911 15 56 0.0 1.6 0.00 0.00 0.00 65 1015.9
20260508025912 15 56 0.0 3.2 0.00 0.00 0.00 62 1015.9
20260508025410 15 80 1.6 3.2 0.00 0.00 0.00 62 1015.9
20260508024911 15 80 1.6 3.2 0.00 0.00 0.00 61 1015.8
20260508024411 15 46 0.0 4.8 0.00 0.00 0.00 61 1015.8
20260508023911 15 55 0.0 4.8 0.00 0.00 0.00 61 1015.9
20260508023415 16 110 0.0 1.6 0.00 0.00 0.00 59 1016.0
20260508023409 16 7 0.0 3.2 0.00 0.00 0.00 60 1015.9
20260508022909 16 7 0.0 3.2 0.00 0.00 0.00 59 1015.9
20260508021913 16 110 0.0 1.6 0.00 0.00 0.00 58 1016.0
20260508021908 16 110 0.0 1.6 0.00 0.00 0.00 58 1016.0
20260508020910 16 110 0.0 1.6 0.00 0.00 0.00 56 1016.1
20260508020410 17 110 0.0 1.6 0.00 0.00 0.00 53 1016.2
20260508015908 17 110 0.0 1.6 0.00 0.00 0.00 54 1016.1
20260508015408 17 110 1.6 6.4 0.00 0.00 0.00 53 1016.2
20260508014913 17 57 1.6 6.4 0.00 0.00 0.00 52 1016.2
20260508014908 17 91 1.6 6.4 0.00 0.00 0.00 52 1016.1
20260508014407 17 54 1.6 6.4 0.00 0.00 0.00 52 1016.1
20260508013407 17 31 1.6 6.4 0.00 0.00 0.00 50 1016.1
20260508012907 17 53 1.6 3.2 0.00 0.00 0.00 52 1016.2
20260508012407 17 91 1.6 3.2 0.00 0.00 0.00 51 1016.4
20260508011907 18 187 0.0 3.2 0.00 0.00 0.00 50 1016.3
20260508011409 18 276 0.0 1.6 0.00 0.00 0.00 51 1016.5
20260508010909 17 276 0.0 1.6 0.00 0.00 0.00 52 1016.5
20260508010905 17 276 1.6 4.8 0.00 0.00 0.00 52 1016.6
20260508005905 18 276 0.0 4.8 0.00 0.00 0.00 50 1016.7
20260508005403 18 73 0.0 3.2 0.00 0.00 0.00 51 1016.7
20260508004902 18 73 0.0 3.2 0.00 0.00 0.00 51 1016.7
20260508004401 18 72 1.6 4.8 0.00 0.00 0.00 51 1016.7
20260508003901 18 67 1.6 4.8 0.00 0.00 0.00 49 1016.7
20260508003404 18 281 1.6 4.8 0.00 0.00 0.00 48 1016.8
20260508003400 18 46 1.6 4.8 0.00 0.00 0.00 48 1016.8
20260508002400 18 316 1.6 4.8 0.00 0.00 0.00 51 1016.8
20260508001901 18 252 1.6 6.4 0.00 0.00 0.00 53 1016.8
20260508001359 18 176 3.2 6.4 0.00 0.00 0.00 51 1016.9
20260508000900 18 273 3.2 6.4 0.00 0.00 0.00 51 1016.9
20260508000359 18 210 3.2 8.0 0.00 0.00 0.00 51 1016.9
20260507235856 18 162 3.2 8.0 0.00 0.00 0.00 50 1016.9
20260507235358 18 185 3.2 8.0 0.00 0.00 0.00 50 1017.1
20260507234857 18 193 3.2 6.4 0.00 0.00 0.00 51 1017.1
20260507234359 18 142 3.2 8.0 0.00 0.00 0.00 52 1017.2
20260507233854 17 170 3.2 11.3 0.00 0.00 0.00 50 1017.1
20260507233355 17 202 4.8 11.3 0.00 0.00 0.00 54 1017.1
20260507232854 17 129 4.8 11.3 0.00 0.00 0.00 52 1017.2
20260507232355 17 274 4.8 11.3 0.00 0.00 0.00 52 1017.2
20260507231855 17 126 3.2 9.7 0.00 0.00 0.00 53 1017.3
20260507231355 17 160 4.8 11.3 0.00 0.00 0.00 53 1017.4
20260507230855 16 121 6.4 11.3 0.00 0.00 0.00 53 1017.4
20260507230353 17 160 6.4 11.3 0.00 0.00 0.00 53 1017.5
20260507225853 17 125 4.8 14.5 0.00 0.00 0.00 53 1017.6
20260507225355 17 119 4.8 14.5 0.00 0.00 0.00 52 1017.6
20260507224854 17 187 4.8 11.3 0.00 0.00 0.00 54 1017.7
20260507224401 17 200 3.2 12.9 0.00 0.00 0.00 53 1017.8
20260507224355 17 154 4.8 12.9 0.00 0.00 0.00 54 1017.6
20260507223357 17 76 3.2 8.0 0.00 0.00 0.00 53 1017.8
20260507222854 17 268 4.8 9.7 0.00 0.00 0.00 52 1017.8
20260507222354 16 200 6.4 12.9 0.00 0.00 0.00 53 1017.9
20260507221853 17 139 4.8 12.9 0.00 0.00 0.00 51 1017.9
20260507221353 17 204 3.2 11.3 0.00 0.00 0.00 53 1018.0
20260507220900 17 212 3.2 11.3 0.00 0.00 0.00 54 1018.1
20260507220855 17 128 1.6 8.0 0.00 0.00 0.00 52 1018.0
20260507215855 16 11 4.8 11.3 0.00 0.00 0.00 54 1018.2
20260507215353 16 261 4.8 9.7 0.00 0.00 0.00 54 1018.2
20260507214853 16 237 4.8 11.3 0.00 0.00 0.00 55 1018.3
20260507214354 16 262 3.2 11.3 0.00 0.00 0.00 52 1018.4
20260507213854 17 192 4.8 12.9 0.00 0.00 0.00 56 1018.4
20260507213353 16 188 4.8 12.9 0.00 0.00 0.00 54 1018.4
20260507212859 16 120 4.8 14.5 0.00 0.00 0.00 55 1018.6
20260507212854 17 142 4.8 9.7 0.00 0.00 0.00 56 1018.4
20260507211901 16 167 4.8 14.5 0.00 0.00 0.00 54 1018.7
20260507211856 16 118 4.8 14.5 0.00 0.00 0.00 53 1018.7
20260507210855 16 131 4.8 14.5 0.00 0.00 0.00 55 1018.7
20260507210355 16 180 3.2 9.7 0.00 0.00 0.00 54 1018.7
20260507205859 16 247 4.8 12.9 0.00 0.00 0.00 54 1018.8
20260507205854 16 83 4.8 9.7 0.00 0.00 0.00 55 1018.7
20260507204853 16 229 4.8 12.9 0.00 0.00 0.00 52 1018.8
20260507204351 17 102 4.8 11.3 0.00 0.00 0.00 54 1018.9
20260507203852 16 149 4.8 12.9 0.00 0.00 0.00 53 1019.0
20260507203352 16 184 4.8 12.9 0.00 0.00 0.00 54 1019.0
20260507202857 16 120 4.8 12.9 0.00 0.00 0.00 55 1019.1
20260507202851 16 173 4.8 11.3 0.00 0.00 0.00 54 1019.1
20260507201851 16 118 4.8 12.9 0.00 0.00 0.00 55 1019.1
20260507201351 16 147 4.8 11.3 0.00 0.00 0.00 55 1019.2
20260507200854 15 120 6.4 14.5 0.00 0.00 0.00 59 1019.3
20260507200353 15 105 6.4 14.5 0.00 0.00 0.00 59 1019.3
20260507195852 15 116 4.8 12.9 0.00 0.00 0.00 58 1019.4
20260507195353 15 146 3.2 11.3 0.00 0.00 0.00 58 1019.4
20260507194852 15 240 4.8 11.3 0.00 0.00 0.00 59 1019.4
20260507194352 15 134 4.8 11.3 0.00 0.00 0.00 60 1019.5
20260507193849 15 157 4.8 11.3 0.00 0.00 0.00 60 1019.5
20260507193348 14 301 3.2 8.0 0.00 0.00 0.00 60 1019.4
20260507192847 15 310 3.2 8.0 0.00 0.00 0.00 59 1019.5
20260507192353 15 105 3.2 9.7 0.00 0.00 0.00 59 1019.5
20260507192348 15 327 3.2 9.7 0.00 0.00 0.00 60 1019.5
20260507191347 15 319 3.2 9.7 0.00 0.00 0.00 59 1019.5
20260507190847 14 128 4.8 8.0 0.00 0.00 0.00 62 1019.6
20260507190347 14 115 4.8 9.7 0.00 0.00 0.00 61 1019.7
20260507185845 14 191 4.8 9.7 0.00 0.00 0.00 60 1019.6
20260507185353 14 346 4.8 9.7 0.00 0.00 0.00 61 1019.8
20260507185346 15 167 4.8 14.5 0.00 0.00 0.00 63 1019.6
20260507184847 14 145 4.8 14.5 0.00 0.00 0.00 61 1019.7
20260507183845 14 158 4.8 11.3 0.00 0.00 0.00 64 1019.8
20260507183347 14 168 4.8 11.3 0.00 0.00 0.00 61 1019.8
20260507182845 14 195 3.2 8.0 0.00 0.00 0.00 62 1019.7
20260507182350 13 184 3.2 9.7 0.00 0.00 0.00 64 1019.9
20260507182345 13 15 3.2 9.7 0.00 0.00 0.00 64 1019.8
20260507181506 13 89 3.2 11.3 0.00 0.00 0.00 65 1019.9
20260507181349 13 121 4.8 12.9 0.00 0.00 0.00 64 1020.1
20260507181343 13 224 4.8 12.9 0.00 0.00 0.00 66 1020.1
20260507175844 13 303 3.2 11.3 0.00 0.00 0.00 65 1020.1
20260507175346 13 139 3.2 9.7 0.00 0.00 0.00 66 1020.1
20260507174845 13 168 3.2 9.7 0.00 0.00 0.00 66 1020.1
20260507174344 13 149 4.8 9.7 0.00 0.00 0.00 67 1020.2
20260507173841 12 193 4.8 9.7 0.00 0.00 0.00 68 1020.1
20260507173343 12 231 4.8 11.3 0.00 0.00 0.00 68 1020.2
20260507172842 13 153 3.2 11.3 0.00 0.00 0.00 67 1020.2
20260507172343 13 293 3.2 8.0 0.00 0.00 0.00 67 1020.2
20260507171842 13 234 3.2 8.0 0.00 0.00 0.00 67 1020.2
20260507171350 12 255 3.2 8.0 0.00 0.00 0.00 69 1020.2
20260507171344 13 217 3.2 8.0 0.00 0.00 0.00 69 1020.3
20260507170343 12 311 3.2 12.9 0.00 0.00 0.00 70 1020.2
20260507165841 12 106 4.8 12.9 0.00 0.00 0.00 69 1020.2
20260507165340 12 116 3.2 8.0 0.00 0.00 0.00 70 1020.2
20260507164839 12 217 4.8 8.0 0.00 0.00 0.00 70 1020.2
20260507164339 12 104 4.8 9.7 0.00 0.00 0.00 71 1020.2
20260507163840 12 173 3.2 9.7 0.00 0.00 0.00 71 1020.3
20260507163340 12 125 3.2 9.7 0.00 0.00 0.00 70 1020.3
20260507162840 12 203 3.2 11.3 0.00 0.00 0.00 73 1020.2
20260507162336 11 109 3.2 11.3 0.00 0.00 0.00 70 1020.2
20260507161837 11 172 3.2 9.7 0.00 0.00 0.00 72 1020.3
20260507161343 11 161 3.2 9.7 0.00 0.00 0.00 73 1020.3
20260507161337 11 257 3.2 9.7 0.00 0.00 0.00 73 1020.3
20260507160334 11 153 3.2 6.4 0.00 0.00 0.00 74 1020.3
20260507155834 11 129 3.2 11.3 0.00 0.00 0.00 74 1020.3
20260507155335 11 161 3.2 11.3 0.00 0.00 0.00 73 1020.3
20260507154836 11 27 3.2 8.0 0.00 0.00 0.00 75 1020.3
20260507154339 10 238 3.2 9.7 0.00 0.00 0.00 75 1020.3
20260507154333 10 201 4.8 9.7 0.00 0.00 0.00 75 1020.4
20260507153333 10 169 3.2 9.7 0.00 0.00 0.00 75 1020.4
20260507152838 10 146 1.6 8.0 0.00 0.00 0.00 76 1020.4
20260507152832 11 205 1.6 8.0 0.00 0.00 0.00 75 1020.4
20260507151833 10 173 3.2 8.0 0.00 0.00 0.00 77 1020.4
20260507151333 10 75 1.6 6.4 0.00 0.00 0.00 77 1020.4
20260507150833 10 215 1.6 6.4 0.00 0.00 0.00 78 1020.4
20260507150338 10 177 3.2 8.0 0.00 0.00 0.00 79 1020.5
20260507150334 10 79 1.6 6.4 0.00 0.00 0.00 78 1020.5
20260507145955 10 32 0.0 3.2 0.00 0.00 0.00 79 1020.4
20260507145334 10 118 1.6 8.0 0.00 0.00 0.00 78 1020.5
20260507144332 10 32 0.0 3.2 0.00 0.00 0.00 79 1020.4
20260507143832 10 225 1.6 4.8 0.00 0.00 0.00 79 1020.5
20260507143332 10 286 1.6 4.8 0.00 0.00 0.00 79 1020.4
20260507142831 10 276 1.6 4.8 0.00 0.00 0.00 80 1020.4
20260507142331 9 274 1.6 4.8 0.00 0.00 0.00 80 1020.4
20260507141832 9 229 1.6 4.8 0.00 0.00 0.00 80 1020.4
20260507141332 9 302 1.6 4.8 0.00 0.00 0.00 81 1020.4
20260507140830 9 214 0.0 1.6 0.00 0.00 0.00 81 1020.4
20260507140332 9 167 0.0 1.6 0.00 0.00 0.00 81 1020.3
20260507135829 9 307 0.0 3.2 0.00 0.00 0.00 81 1020.3
20260507135329 9 54 0.0 4.8 0.00 0.00 0.00 82 1020.2
20260507134829 9 214 0.0 4.8 0.00 0.00 0.00 82 1020.2
20260507134329 9 151 0.0 3.2 0.00 0.00 0.00 82 1020.1
20260507133830 9 187 0.0 0.0 0.00 0.00 0.00 82 1020.1
20260507133330 9 187 0.0 0.0 0.00 0.00 0.00 82 1020.1
20260507132833 9 169 0.0 0.0 0.00 0.00 0.00 82 1020.1
20260507132829 9 187 0.0 0.0 0.00 0.00 0.00 82 1020.2
20260507131831 9 173 0.0 0.0 0.00 0.00 0.00 82 1020.2
20260507131329 9 169 0.0 1.6 0.00 0.00 0.00 82 1020.1
20260507130830 9 131 1.6 6.4 0.00 0.00 0.00 82 1019.9
20260507130334 9 276 1.6 6.4 0.00 0.00 0.00 82 1019.8
20260507130328 9 209 1.6 6.4 0.00 0.00 0.00 82 1019.9
20260507125337 9 226 0.0 3.2 0.00 0.00 0.00 82 1020.1
20260507125329 9 124 0.0 4.8 0.00 0.00 0.00 82 1019.9
20260507124829 9 233 0.0 3.2 0.00 0.00 0.00 82 1019.9
20260507124328 9 232 0.0 3.2 0.00 0.00 0.00 82 1019.9
20260507123830 9 262 1.6 3.2 0.00 0.00 0.00 82 1020.1
20260507122831 9 299 0.0 4.8 0.00 0.00 0.00 82 1020.1
20260507122328 9 239 1.6 4.8 0.00 0.00 0.00 82 1020.1
20260507121830 9 252 0.0 3.2 0.00 0.00 0.00 82 1020.1
20260507121328 9 109 0.0 1.6 0.00 0.00 0.00 82 1020.1
20260507120834 9 278 1.6 3.2 0.00 0.00 0.00 82 1020.3
20260507120828 9 278 0.0 3.2 0.00 0.00 0.00 82 1020.2
20260507115829 9 251 1.6 6.4 0.00 0.00 0.00 82 1020.2
20260507115329 10 320 1.6 6.4 0.00 0.00 0.00 82 1020.2
20260507114828 10 121 0.0 3.2 0.00 0.00 0.00 82 1020.3
20260507114325 10 171 0.0 4.8 0.00 0.00 0.00 82 1020.2
20260507113824 10 117 0.0 4.8 0.00 0.00 0.00 82 1020.3
20260507113324 10 4 0.0 4.8 0.00 0.00 0.00 82 1020.4
20260507112826 10 201 0.0 3.2 0.00 0.00 0.00 82 1020.4
20260507112326 10 152 0.0 1.6 0.00 0.00 0.00 82 1020.4
20260507111825 10 169 0.0 3.2 0.00 0.00 0.00 82 1020.5
20260507111325 10 121 1.6 8.0 0.00 0.00 0.00 82 1020.5
20260507110830 10 230 0.0 0.0 0.00 0.00 0.00 83 1020.5
20260507110826 10 127 1.6 8.0 0.00 0.00 0.00 83 1020.4
20260507105823 10 191 0.0 4.8 0.00 0.00 0.00 83 1020.5
20260507105320 10 128 0.0 4.8 0.00 0.00 0.00 83 1020.5
20260507104828 10 255 0.0 3.2 0.00 0.00 0.00 84 1020.5
20260507104822 10 255 0.0 1.6 0.00 0.00 0.00 84 1020.5
20260507103821 10 256 0.0 3.2 0.00 0.00 0.00 83 1020.5
20260507103318 10 5 0.0 3.2 0.00 0.00 0.00 83 1020.5
20260507102821 10 251 1.6 4.8 0.00 0.00 0.00 83 1020.5
20260507102817 10 251 1.6 4.8 0.00 0.00 0.00 83 1020.5
20260507102437 10 227 0.0 4.8 0.00 0.00 0.00 83 1020.5
20260507101317 10 166 0.0 3.2 0.00 0.00 0.00 83 1020.6
20260507100816 10 166 1.6 4.8 0.00 0.00 0.00 83 1020.6
20260507100314 10 115 1.6 4.8 0.00 0.00 0.00 83 1020.5
20260507095814 10 165 1.6 6.4 0.00 0.00 0.00 83 1020.5
20260507095314 10 48 1.6 6.4 0.00 0.00 0.00 83 1020.5
20260507094816 10 309 3.2 8.0 0.00 0.00 0.00 83 1020.4
20260507094315 10 217 1.6 8.0 0.00 0.00 0.00 83 1020.4
20260507093814 10 153 1.6 6.4 0.00 0.00 0.00 83 1020.4
20260507093314 10 300 0.0 4.8 0.00 0.00 0.00 83 1020.5
20260507092812 10 326 1.6 6.4 0.00 0.00 0.00 83 1020.4
20260507092312 10 327 3.2 11.3 0.00 0.00 0.00 83 1020.5
20260507091811 10 285 3.2 11.3 0.00 0.00 0.00 83 1020.4
20260507091311 10 259 1.6 11.3 0.00 0.00 0.00 82 1020.5
20260507090811 10 173 1.6 11.3 0.00 0.00 0.00 82 1020.5
20260507090311 10 232 1.6 4.8 0.00 0.00 0.00 82 1020.5
20260507085812 10 289 1.6 6.4 0.00 0.00 0.00 82 1020.6
20260507085311 10 282 1.6 8.0 0.00 0.00 0.00 82 1020.6
20260507084811 10 59 1.6 8.0 0.00 0.00 0.00 82 1020.6
20260507084313 10 262 1.6 6.4 0.00 0.00 0.00 82 1020.6
20260507083812 10 276 1.6 8.0 0.00 0.00 0.00 81 1020.6
20260507083309 10 27 1.6 8.0 0.00 0.00 0.00 81 1020.5
20260507082810 10 323 3.2 9.7 0.00 0.00 0.00 81 1020.5
20260507082308 10 141 1.6 9.7 0.00 0.00 0.00 81 1020.5
20260507081810 10 53 1.6 6.4 0.00 0.00 0.00 80 1020.6
20260507081308 10 257 1.6 9.7 0.00 0.00 0.00 80 1020.7
20260507080809 10 138 1.6 9.7 0.00 0.00 0.00 80 1020.6
20260507080309 10 217 1.6 8.0 0.00 0.00 0.00 80 1020.5
20260507075809 10 332 1.6 8.0 0.00 0.00 0.00 81 1020.5
20260507075315 10 260 1.6 9.7 0.00 0.00 0.00 81 1020.6
20260507075309 10 356 1.6 9.7 0.00 0.00 0.00 81 1020.6
20260507074308 10 245 1.6 4.8 0.00 0.00 0.00 81 1020.6
20260507073805 10 34 1.6 6.4 0.00 0.00 0.00 81 1020.5
20260507073308 10 101 1.6 8.0 0.00 0.00 0.00 81 1020.5
20260507072807 10 212 1.6 8.0 0.00 0.00 0.00 81 1020.6
20260507072309 10 135 1.6 8.0 0.00 0.00 0.00 81 1020.6
20260507071807 10 279 1.6 8.0 0.00 0.00 0.00 81 1020.5